| time (UTC) | temp F | wind direction | speed MPH | gust MPH | rain 1hr in | rain 24hr in | rain mn in | humidity % | barometer mb |
| 20260503232059 | 83 | 226 | 0.0 | 1.0 | 0.00 | 0.00 | 0.00 | 24 | 1003.5 |
| 20260503231559 | 83 | 228 | 0.0 | 1.0 | 0.00 | 0.00 | 0.00 | 23 | 1003.5 |
| 20260503231059 | 83 | 235 | 0.0 | 1.0 | 0.00 | 0.00 | 0.00 | 24 | 1003.4 |
| 20260503230601 | 84 | 243 | 0.0 | 1.0 | 0.00 | 0.00 | 0.00 | 23 | 1003.5 |
| 20260503230059 | 85 | 298 | 0.0 | 2.0 | 0.00 | 0.00 | 0.00 | 24 | 1003.4 |
| 20260503225540 | 84 | 259 | 0.0 | 2.0 | 0.00 | 0.00 | 0.00 | 24 | 1003.6 |
| 20260503225039 | 84 | 219 | 0.0 | 10.0 | 0.00 | 0.00 | 0.00 | 24 | 1003.6 |
| 20260503224538 | 84 | 253 | 2.0 | 12.0 | 0.00 | 0.00 | 0.00 | 24 | 1003.6 |
| 20260503224039 | 84 | 260 | 3.0 | 13.0 | 0.00 | 0.00 | 0.00 | 25 | 1003.6 |
| 20260503223539 | 84 | 229 | 0.0 | 1.0 | 0.00 | 0.00 | 0.00 | 24 | 1003.7 |
| 20260503223040 | 85 | 246 | 0.0 | 1.0 | 0.00 | 0.00 | 0.00 | 23 | 1003.7 |
| 20260503222517 | 84 | 256 | 0.0 | 1.0 | 0.00 | 0.00 | 0.00 | 23 | 1003.8 |
| 20260503222017 | 83 | 249 | 0.0 | 1.0 | 0.00 | 0.00 | 0.00 | 24 | 1003.9 |
| 20260503221528 | 84 | 225 | 0.0 | 1.0 | 0.00 | 0.00 | 0.00 | 23 | 1003.9 |
| 20260503221016 | 85 | 214 | 0.0 | 6.0 | 0.00 | 0.00 | 0.00 | 22 | 1003.9 |
| 20260503220515 | 85 | 242 | 1.0 | 6.0 | 0.00 | 0.00 | 0.00 | 24 | 1003.9 |
| 20260503220017 | 85 | 250 | 0.0 | 2.0 | 0.00 | 0.00 | 0.00 | 23 | 1003.8 |
| 20260503215615 | 85 | 224 | 0.0 | 1.0 | 0.00 | 0.00 | 0.00 | 23 | 1004.0 |
| 20260503215056 | 84 | 243 | 0.0 | 1.0 | 0.00 | 0.00 | 0.00 | 26 | 1003.9 |
| 20260503214554 | 83 | 219 | 0.0 | 1.0 | 0.00 | 0.00 | 0.00 | 26 | 1004.1 |
| 20260503214054 | 83 | 253 | 0.0 | 1.0 | 0.00 | 0.00 | 0.00 | 28 | 1004.2 |
| 20260503213556 | 83 | 183 | 0.0 | 6.0 | 0.00 | 0.00 | 0.00 | 25 | 1004.3 |
| 20260503213052 | 84 | 266 | 0.0 | 6.0 | 0.00 | 0.00 | 0.00 | 26 | 1004.3 |
| 20260503212552 | 84 | 250 | 0.0 | 1.0 | 0.00 | 0.00 | 0.00 | 26 | 1004.4 |
| 20260503212036 | 83 | 263 | 0.0 | 1.0 | 0.00 | 0.00 | 0.00 | 26 | 1004.5 |
| 20260503211542 | 82 | 263 | 0.0 | 1.0 | 0.00 | 0.00 | 0.00 | 27 | 1004.5 |
| 20260503211031 | 83 | 229 | 0.0 | 1.0 | 0.00 | 0.00 | 0.00 | 27 | 1004.7 |
| 20260503210531 | 83 | 226 | 0.0 | 1.0 | 0.00 | 0.00 | 0.00 | 28 | 1004.7 |
| 20260503210030 | 83 | 231 | 0.0 | 1.0 | 0.00 | 0.00 | 0.00 | 27 | 1004.9 |
| 20260503205529 | 85 | 256 | 0.0 | 1.0 | 0.00 | 0.00 | 0.00 | 27 | 1004.8 |
| 20260503205022 | 85 | 238 | 0.0 | 1.0 | 0.00 | 0.00 | 0.00 | 28 | 1004.9 |
| 20260503204515 | 85 | 251 | 0.0 | 1.0 | 0.00 | 0.00 | 0.00 | 28 | 1005.1 |
| 20260503204014 | 85 | 297 | 0.0 | 5.0 | 0.00 | 0.00 | 0.00 | 27 | 1005.1 |
| 20260503203514 | 84 | 233 | 0.0 | 5.0 | 0.00 | 0.00 | 0.00 | 28 | 1005.3 |
| 20260503203015 | 84 | 252 | 0.0 | 1.0 | 0.00 | 0.00 | 0.00 | 29 | 1005.4 |
| 20260503202518 | 84 | 256 | 0.0 | 1.0 | 0.00 | 0.00 | 0.00 | 27 | 1005.3 |
| 20260503202012 | 84 | 200 | 0.0 | 1.0 | 0.00 | 0.00 | 0.00 | 29 | 1005.5 |
| 20260503201524 | 84 | 239 | 0.0 | 1.0 | 0.00 | 0.00 | 0.00 | 29 | 1005.6 |
| 20260503201008 | 84 | 243 | 0.0 | 12.0 | 0.00 | 0.00 | 0.00 | 29 | 1005.7 |
| 20260503200507 | 83 | 276 | 3.0 | 13.0 | 0.00 | 0.00 | 0.00 | 31 | 1005.7 |
| 20260503200007 | 83 | 257 | 0.0 | 1.0 | 0.00 | 0.00 | 0.00 | 33 | 1005.8 |
| 20260503195506 | 82 | 260 | 0.0 | 1.0 | 0.00 | 0.00 | 0.00 | 32 | 1005.8 |
| 20260503195004 | 82 | 243 | 0.0 | 1.0 | 0.00 | 0.00 | 0.00 | 33 | 1005.9 |
| 20260503194504 | 83 | 235 | 0.0 | 1.0 | 0.00 | 0.00 | 0.00 | 35 | 1006.0 |
| 20260503194003 | 82 | 284 | 0.0 | 1.0 | 0.00 | 0.00 | 0.00 | 34 | 1006.0 |
| 20260503193502 | 82 | 207 | 0.0 | 1.0 | 0.00 | 0.00 | 0.00 | 35 | 1006.2 |
| 20260503193001 | 81 | 267 | 0.0 | 1.0 | 0.00 | 0.00 | 0.00 | 37 | 1006.2 |
| 20260503192600 | 81 | 49 | 0.0 | 1.0 | 0.00 | 0.00 | 0.00 | 36 | 1006.2 |
| 20260503192102 | 81 | 250 | 0.0 | 1.0 | 0.00 | 0.00 | 0.00 | 37 | 1006.3 |
| 20260503191601 | 81 | 239 | 0.0 | 1.0 | 0.00 | 0.00 | 0.00 | 37 | 1006.5 |
| 20260503191059 | 81 | 266 | 0.0 | 11.0 | 0.00 | 0.00 | 0.00 | 37 | 1006.6 |
| 20260503190556 | 82 | 268 | 0.0 | 6.0 | 0.00 | 0.00 | 0.00 | 38 | 1006.4 |
| 20260503190055 | 82 | 249 | 0.0 | 1.0 | 0.00 | 0.00 | 0.00 | 39 | 1006.6 |
| 20260503185553 | 82 | 259 | 0.0 | 1.0 | 0.00 | 0.00 | 0.00 | 40 | 1006.7 |
| 20260503185036 | 81 | 262 | 0.0 | 0.0 | 0.00 | 0.00 | 0.00 | 42 | 1006.8 |
| 20260503184534 | 80 | 236 | 0.0 | 1.0 | 0.00 | 0.00 | 0.00 | 43 | 1006.9 |
| 20260503184033 | 80 | 163 | 0.0 | 1.0 | 0.00 | 0.00 | 0.00 | 42 | 1007.1 |
| 20260503183532 | 79 | 261 | 0.0 | 1.0 | 0.00 | 0.00 | 0.00 | 44 | 1007.2 |
| 20260503183037 | 78 | 262 | 0.0 | 1.0 | 0.00 | 0.00 | 0.00 | 45 | 1007.3 |
| 20260503182529 | 77 | 240 | 0.0 | 1.0 | 0.00 | 0.00 | 0.00 | 45 | 1007.4 |
| 20260503182011 | 78 | 258 | 0.0 | 2.0 | 0.00 | 0.00 | 0.00 | 45 | 1007.4 |
| 20260503181524 | 77 | 329 | 0.0 | 1.0 | 0.00 | 0.00 | 0.00 | 45 | 1007.4 |
| 20260503181010 | 77 | 245 | 0.0 | 1.0 | 0.00 | 0.00 | 0.00 | 46 | 1007.6 |
| 20260503180510 | 77 | 245 | 0.0 | 1.0 | 0.00 | 0.00 | 0.00 | 47 | 1007.6 |
| 20260503180009 | 76 | 245 | 0.0 | 1.0 | 0.00 | 0.00 | 0.00 | 47 | 1007.7 |
| 20260503175508 | 77 | 256 | 0.0 | 1.0 | 0.00 | 0.00 | 0.00 | 46 | 1007.8 |
| 20260503175050 | 76 | 276 | 0.0 | 1.0 | 0.00 | 0.00 | 0.00 | 49 | 1007.8 |
| 20260503174555 | 76 | 245 | 0.0 | 1.0 | 0.00 | 0.00 | 0.00 | 49 | 1007.9 |
| 20260503174049 | 75 | 251 | 0.0 | 1.0 | 0.00 | 0.00 | 0.00 | 51 | 1008.0 |
| 20260503173548 | 75 | 250 | 0.0 | 1.0 | 0.00 | 0.00 | 0.00 | 54 | 1008.0 |
| 20260503173055 | 75 | 219 | 0.0 | 1.0 | 0.00 | 0.00 | 0.00 | 55 | 1008.1 |
| 20260503172548 | 74 | 252 | 0.0 | 1.0 | 0.00 | 0.00 | 0.00 | 56 | 1008.2 |
| 20260503172027 | 73 | 248 | 0.0 | 1.0 | 0.00 | 0.00 | 0.00 | 57 | 1008.3 |
| 20260503171527 | 73 | 250 | 0.0 | 1.0 | 0.00 | 0.00 | 0.00 | 57 | 1008.4 |
| 20260503171027 | 73 | 233 | 0.0 | 1.0 | 0.00 | 0.00 | 0.00 | 56 | 1008.5 |
| 20260503170527 | 74 | 248 | 0.0 | 0.0 | 0.00 | 0.00 | 0.00 | 56 | 1008.5 |
| 20260503150552 | 63 | 229 | 0.0 | 1.0 | 0.00 | 0.00 | 0.00 | 77 | 1009.7 |
| 20260503131019 | 57 | 240 | 0.0 | 0.0 | 0.00 | 0.00 | 0.00 | 90 | 1008.5 |
| 20260503130517 | 56 | 241 | 0.0 | 0.0 | 0.00 | 0.00 | 0.00 | 91 | 1008.4 |
| 20260503110533 | 0 | 0.0 | 0.0 | 0.00 | 0.00 | 0.00 | 1007.2 | ||
| 20260503081518 | 56 | 338 | 0.0 | 0.0 | 0.00 | 0.00 | 0.00 | 87 | 1006.6 |
| 20260503081014 | 57 | 339 | 0.0 | 0.0 | 0.00 | 0.00 | 0.00 | 86 | 1006.7 |
| 20260503080515 | 57 | 338 | 0.0 | 0.0 | 0.00 | 0.00 | 0.00 | 87 | 1006.6 |
| 20260503072555 | 57 | 68 | 0.0 | 1.0 | 0.00 | 0.00 | 0.00 | 88 | 1006.6 |
| 20260503072055 | 57 | 250 | 0.0 | 0.0 | 0.00 | 0.00 | 0.00 | 88 | 1006.7 |
| 20260503071538 | 56 | 250 | 0.0 | 0.0 | 0.00 | 0.00 | 0.00 | 88 | 1006.9 |
| 20260503071035 | 56 | 250 | 0.0 | 0.0 | 0.00 | 0.00 | 0.00 | 87 | 1006.9 |
| 20260503070535 | 57 | 250 | 0.0 | 0.0 | 0.00 | 0.00 | 0.00 | 86 | 1006.9 |
| 20260503060113 | 60 | 58 | 0.0 | 1.0 | 0.00 | 0.00 | 0.00 | 82 | 1006.4 |
| 20260503055052 | 60 | 32 | 0.0 | 1.0 | 0.00 | 0.00 | 0.00 | 82 | 1006.3 |
| 20260503054552 | 60 | 61 | 0.0 | 1.0 | 0.00 | 0.00 | 0.00 | 83 | 1006.4 |
| 20260503054039 | 59 | 64 | 0.0 | 0.0 | 0.00 | 0.00 | 0.00 | 85 | 1006.4 |
| 20260503053539 | 59 | 238 | 0.0 | 0.0 | 0.00 | 0.00 | 0.00 | 85 | 1006.3 |
| 20260503053042 | 59 | 225 | 0.0 | 1.0 | 0.00 | 0.00 | 0.00 | 85 | 1006.3 |
| 20260503052537 | 59 | 226 | 0.0 | 1.0 | 0.00 | 0.00 | 0.00 | 85 | 1006.2 |
| 20260503052037 | 59 | 200 | 0.0 | 1.0 | 0.00 | 0.00 | 0.00 | 84 | 1006.2 |
| 20260503051535 | 60 | 219 | 0.0 | 0.0 | 0.00 | 0.00 | 0.00 | 83 | 1006.1 |
| 20260503051033 | 60 | 232 | 0.0 | 0.0 | 0.00 | 0.00 | 0.00 | 82 | 1006.1 |
| 20260503050533 | 61 | 224 | 0.0 | 0.0 | 0.00 | 0.00 | 0.00 | 81 | 1005.8 |
| 20260503050035 | 61 | 224 | 0.0 | 0.0 | 0.00 | 0.00 | 0.00 | 80 | 1005.8 |
| 20260503045533 | 61 | 224 | 0.0 | 0.0 | 0.00 | 0.00 | 0.00 | 80 | 1005.7 |
| 20260503045034 | 61 | 224 | 0.0 | 0.0 | 0.00 | 0.00 | 0.00 | 80 | 1005.6 |
| 20260503044604 | 61 | 224 | 0.0 | 0.0 | 0.00 | 0.00 | 0.00 | 80 | 1005.5 |
| 20260503044030 | 61 | 224 | 0.0 | 0.0 | 0.00 | 0.00 | 0.00 | 80 | 1005.5 |
| 20260503043529 | 62 | 223 | 0.0 | 0.0 | 0.00 | 0.00 | 0.00 | 79 | 1005.4 |
| 20260503043028 | 62 | 231 | 0.0 | 0.0 | 0.00 | 0.00 | 0.00 | 78 | 1005.2 |
| 20260503042528 | 62 | 136 | 0.0 | 0.0 | 0.00 | 0.00 | 0.00 | 78 | 1005.1 |
| 20260503042028 | 62 | 98 | 0.0 | 0.0 | 0.00 | 0.00 | 0.00 | 78 | 1005.0 |
| 20260503041528 | 62 | 74 | 0.0 | 1.0 | 0.00 | 0.00 | 0.00 | 79 | 1004.9 |
| 20260503041026 | 62 | 113 | 0.0 | 1.0 | 0.00 | 0.00 | 0.00 | 79 | 1004.9 |
| 20260503040525 | 62 | 129 | 0.0 | 1.0 | 0.00 | 0.00 | 0.00 | 80 | 1004.7 |
| 20260503040025 | 62 | 63 | 0.0 | 1.0 | 0.00 | 0.00 | 0.00 | 80 | 1004.6 |
| 20260503035524 | 62 | 63 | 0.0 | 3.0 | 0.00 | 0.00 | 0.00 | 80 | 1004.5 |
| 20260503035023 | 62 | 72 | 0.0 | 3.0 | 0.00 | 0.00 | 0.00 | 80 | 1004.3 |
| 20260503034523 | 61 | 41 | 0.0 | 1.0 | 0.00 | 0.00 | 0.00 | 80 | 1004.1 |
| 20260503034012 | 61 | 142 | 0.0 | 6.0 | 0.00 | 0.00 | 0.00 | 81 | 1004.2 |
| 20260503033510 | 61 | 72 | 1.0 | 11.0 | 0.00 | 0.00 | 0.00 | 81 | 1004.1 |
| 20260503033013 | 61 | 65 | 1.0 | 11.0 | 0.00 | 0.00 | 0.00 | 81 | 1004.0 |
| 20260503032508 | 61 | 61 | 2.0 | 10.0 | 0.00 | 0.00 | 0.00 | 81 | 1003.7 |
| 20260503032015 | 61 | 63 | 3.0 | 10.0 | 0.00 | 0.00 | 0.00 | 81 | 1003.5 |
| 20260503031508 | 61 | 39 | 4.0 | 10.0 | 0.00 | 0.00 | 0.00 | 80 | 1003.5 |
| 20260503031008 | 62 | 53 | 0.0 | 14.0 | 0.00 | 0.00 | 0.00 | 80 | 1003.3 |
| 20260503030508 | 62 | 48 | 4.0 | 14.0 | 0.00 | 0.00 | 0.00 | 79 | 1003.3 |
| 20260503030011 | 62 | 148 | 3.0 | 11.0 | 0.00 | 0.00 | 0.00 | 79 | 1002.9 |
| 20260503025512 | 62 | 60 | 3.0 | 13.0 | 0.00 | 0.00 | 0.00 | 79 | 1002.8 |
| 20260503025007 | 62 | 50 | 2.0 | 12.0 | 0.00 | 0.00 | 0.00 | 79 | 1002.7 |
| 20260503024505 | 62 | 20 | 5.0 | 12.0 | 0.00 | 0.00 | 0.00 | 78 | 1002.6 |
| 20260503024004 | 63 | 64 | 2.0 | 8.0 | 0.00 | 0.00 | 0.00 | 77 | 1002.6 |
| 20260503023504 | 63 | 48 | 0.0 | 6.0 | 0.00 | 0.00 | 0.00 | 76 | 1002.3 |
| 20260503023005 | 64 | 63 | 0.0 | 6.0 | 0.00 | 0.00 | 0.00 | 75 | 1002.1 |
| 20260503022505 | 64 | 49 | 0.0 | 12.0 | 0.00 | 0.00 | 0.00 | 74 | 1001.9 |
| 20260503022002 | 65 | 60 | 5.0 | 12.0 | 0.00 | 0.00 | 0.00 | 72 | 1001.8 |
| 20260503021501 | 65 | 70 | 0.0 | 9.0 | 0.00 | 0.00 | 0.00 | 71 | 1001.7 |
| 20260503021001 | 66 | 86 | 2.0 | 7.0 | 0.00 | 0.00 | 0.00 | 70 | 1001.5 |
| 20260503020601 | 66 | 79 | 0.0 | 11.0 | 0.00 | 0.00 | 0.00 | 69 | 1001.4 |
| 20260503020115 | 67 | 359 | 3.0 | 11.0 | 0.00 | 0.00 | 0.00 | 67 | 1001.3 |
| 20260503015559 | 68 | 65 | 0.0 | 9.0 | 0.00 | 0.00 | 0.00 | 65 | 1001.0 |
| 20260503015058 | 69 | 68 | 2.0 | 9.0 | 0.00 | 0.00 | 0.00 | 62 | 1000.9 |
| 20260503014615 | 70 | 188 | 0.0 | 5.0 | 0.00 | 0.00 | 0.00 | 60 | 1000.8 |
| 20260503014039 | 71 | 48 | 0.0 | 5.0 | 0.00 | 0.00 | 0.00 | 58 | 1000.4 |
| 20260503013541 | 72 | 343 | 0.0 | 1.0 | 0.00 | 0.00 | 0.00 | 54 | 1000.6 |
| 20260503013041 | 74 | 61 | 0.0 | 1.0 | 0.00 | 0.00 | 0.00 | 49 | 1000.3 |
| 20260503012541 | 77 | 67 | 0.0 | 6.0 | 0.00 | 0.00 | 0.00 | 43 | 1000.2 |
| 20260503012037 | 79 | 64 | 3.0 | 6.0 | 0.00 | 0.00 | 0.00 | 39 | 1000.2 |
| 20260503011537 | 81 | 243 | 0.0 | 1.0 | 0.00 | 0.00 | 0.00 | 19 | 1000.1 |
| 20260503011020 | 82 | 219 | 0.0 | 1.0 | 0.00 | 0.00 | 0.00 | 19 | 1000.0 |
| 20260503010521 | 82 | 204 | 0.0 | 1.0 | 0.00 | 0.00 | 0.00 | 19 | 1000.0 |
| 20260503010020 | 82 | 240 | 0.0 | 1.0 | 0.00 | 0.00 | 0.00 | 19 | 999.9 |
| 20260503005520 | 82 | 228 | 0.0 | 1.0 | 0.00 | 0.00 | 0.00 | 19 | 999.8 |
| 20260503005019 | 83 | 226 | 0.0 | 1.0 | 0.00 | 0.00 | 0.00 | 19 | 999.8 |
| 20260503004519 | 83 | 255 | 0.0 | 1.0 | 0.00 | 0.00 | 0.00 | 19 | 999.7 |
| 20260503004002 | 83 | 253 | 0.0 | 6.0 | 0.00 | 0.00 | 0.00 | 19 | 999.7 |
| 20260503003501 | 84 | 262 | 0.0 | 11.0 | 0.00 | 0.00 | 0.00 | 19 | 999.6 |
| 20260503003001 | 84 | 250 | 8.0 | 11.0 | 0.00 | 0.00 | 0.00 | 17 | 999.5 |
| 20260503002501 | 84 | 226 | 2.0 | 5.0 | 0.00 | 0.00 | 0.00 | 17 | 999.5 |
| 20260503002003 | 84 | 214 | 0.0 | 1.0 | 0.00 | 0.00 | 0.00 | 16 | 999.4 |
| 20260503001503 | 85 | 251 | 0.0 | 1.0 | 0.00 | 0.00 | 0.00 | 16 | 999.4 |
| 20260503001048 | 85 | 258 | 0.0 | 1.0 | 0.00 | 0.00 | 0.00 | 17 | 999.2 |
| 20260503000543 | 85 | 248 | 0.0 | 1.0 | 0.00 | 0.00 | 0.00 | 16 | 999.3 |
| 20260503000049 | 85 | 231 | 0.0 | 9.0 | 0.00 | 0.00 | 0.00 | 17 | 999.2 |
| 20260502235543 | 85 | 245 | 2.0 | 9.0 | 0.00 | 0.00 | 0.00 | 17 | 999.1 |
| 20260502235043 | 85 | 226 | 0.0 | 2.0 | 0.00 | 0.00 | 0.00 | 17 | 999.1 |
| 20260502234553 | 86 | 236 | 0.0 | 1.0 | 0.00 | 0.00 | 0.00 | 17 | 999.0 |
| 20260502234025 | 85 | 255 | 0.0 | 8.0 | 0.00 | 0.00 | 0.00 | 17 | 998.9 |
| 20260502233525 | 85 | 262 | 0.0 | 8.0 | 0.00 | 0.00 | 0.00 | 17 | 998.9 |
| 20260502233024 | 86 | 256 | 0.0 | 2.0 | 0.00 | 0.00 | 0.00 | 16 | 998.8 |
| 20260502232524 | 86 | 233 | 0.0 | 1.0 | 0.00 | 0.00 | 0.00 | 16 | 998.8 |